Location: Tamazert
(32.6352°N, 5.2072°W)
Time: 17:07:25
(UTC+00:00)

Vanguard 3 - Pass Details

Date: 07 October 2022
Orbit: 509 x 3255 km, 33.3° (Epoch: 08 December)

Event Time Altitude Azimuth Distance (km) Brightness Sun altitude
Rises 06:35:54 0° 234° (SW) 2,767 9.5 2.7°
Reaches altitude 10° 06:38:21 10° 225° (SW) 1,757 8.6 3.2°
Maximum altitude 06:41:47 35° 157° (SSE) 824 7.7 3.9°
Drops below altitude 10° 06:45:22 10° 90° (E) 1,822 11.3 4.7°
Sets 06:47:56 0° 81° (E) 2,889 11.7 5.2°
